This is the latest recevied weather packets stored in our database for station/object KB1RMA-13. If no packets are shown the sender has not sent any weather packets the latest 10 day(s).
| Time | Temp. | Humidity | Pressure | Rain* | Wind** | Luminosity | Snow |
|---|---|---|---|---|---|---|---|
| 1778212416 | 10° C | 50% | 1007.8 hPa | 0 mm | - | 0 W/m² | - |
| 1778212113 | 10° C | 50% | 1007.8 hPa | 0 mm | - | 0 W/m² | - |
| 1778211810 | 10.56° C | 49% | 1007.8 hPa | 0 mm | - | 0 W/m² | - |
| 1778211506 | 10.56° C | 50% | 1007.7 hPa | 0 mm | - | 0 W/m² | - |
| 1778211205 | 10.56° C | 49% | 1007.9 hPa | 0 mm | - | 0 W/m² | - |
| 1778210902 | 10.56° C | 49% | 1007.8 hPa | 0 mm | - | 0 W/m² | - |
| 1778210600 | 10.56° C | 51% | 1007.8 hPa | 0 mm | - | 0 W/m² | - |
| 1778210296 | 10.56° C | 51% | 1007.7 hPa | 0 mm | - | 0 W/m² | - |
| 1778209993 | 10.56° C | 51% | 1007.3 hPa | 0 mm | - | 0 W/m² | - |
| 1778209689 | 10.56° C | 50% | 1007.4 hPa | 0 mm | - | 0 W/m² | - |
| 1778209387 | 10.56° C | 50% | 1007.6 hPa | 0 mm | - | 0 W/m² | - |
| 1778209083 | 10° C | 52% | 1007.4 hPa | 0 mm | - | 0 W/m² | - |
| 1778208780 | 10° C | 53% | 1007.4 hPa | 0 mm | - | 0 W/m² | - |
| 1778208476 | 10° C | 51% | 1007.5 hPa | 0 mm | - | 0 W/m² | - |
| 1778208173 | 10.56° C | 49% | 1007.5 hPa | 0 mm | - | 0 W/m² | - |
| 1778207870 | 10.56° C | 49% | 1007.3 hPa | 0 mm | - | 0 W/m² | - |
| 1778207567 | 10.56° C | 49% | 1007.3 hPa | 0 mm | - | 0 W/m² | - |
| 1778207263 | 10° C | 53% | 1007.4 hPa | 0 mm | - | 0 W/m² | - |
| 1778206960 | 10.56° C | 51% | 1007.6 hPa | 0 mm | - | 0 W/m² | - |
| 1778206657 | 10.56° C | 50% | 1007.5 hPa | 0 mm | - | 0 W/m² | - |
| 1778206352 | 10.56° C | 48% | 1007.3 hPa | 0 mm | - | 0 W/m² | - |
| 1778206049 | 10.56° C | 48% | 1007.5 hPa | 0 mm | - | 0 W/m² | - |
| 1778205444 | 11.11° C | 47% | 1007.3 hPa | 0 mm | - | 0 W/m² | - |
| 1778205141 | 11.11° C | 48% | 1007.2 hPa | 0 mm | - | 0 W/m² | - |
| 1778204838 | 10.56° C | 48% | 1007.1 hPa | 0 mm | - | 0 W/m² | - |
* Rain latest hour (hover to see other rain measurements)
** Current wind speed in m/s (hover to see current wind gust speed)